星链-6078 (STARLINK-6078 )

导读 | 豆包AI

STARLINK-6078是美国SpaceX星链互联网卫星星座的一员,于2023年3月29日发射升空,星链计划旨在为全球提供覆盖偏远地区的低延迟宽带互联网服务。该卫星部署在近地轨道,依托大规模星座组网,支撑全球卫星互联网服务布局,是星链持续扩张星座规模的其中一颗发射卫星。

基本信息
目录编号:
56106
目录名称:
STARLINK-6078
国际标识:
2023-046P
轨道中心:
EARTH
卫星名称:
星链-6078
卫星全名:
星链-6078 (STARLINK-6078 )
卫星状态:
已陨落 最后检测时间 2025-01-17
发射日期:
2023-03-29 UTC
国别 :
美国 (US)
星等 :
--
轨道信息
数据来源 国际轨道数据
星历时间: 2025-01-18T07:11:27+0800
轨道信息已过期421天
半长轴: 6532.71km
偏心率: 0.0004166
轨道倾角: 42.987°
近地点辐角 290.404°
升交点赤经 228.347°
平近点角 127.633°
近地点: 151.853km
远地点: 157.297km
周期: 87.579分钟
每日圈数: 16.442307
详细信息
固有亮度:
5
最大亮度:
2.5
卫星平台:
Starlink v1.5
覆盖范围:
全球
运营商:
太空探索技术公司
运营商所在国:
美国
制造商(研发单位):
太空探索技术公司
制造商所在国:
美国
使用方式:
暂无
卫星简介
星链(Starlink)计划是由太空探索技术公司(SpaceX)提出的一个巨型低轨卫星互联网星座项目,计划在2019年至2024年间在太空搭建由约1.2万颗卫星组成的“星链”网络,其中1584颗将部署在地球上空550千米处的近地轨道,并从2020年开始工作。该卫星仍在工作。